When you browse on this site, cookies collect data to enhance your experience and personalize the content and advertising you see.
Visit our Privacy Policy to learn more. By continuing to use the site, you agree to this use of cookies and data.
  • In Hungary
  • List of Countries
  • For 7 days
  • Water Temperature
  • Weather Map
  • News
  • Weather Widgets
  • user-avatar
    Login

    Hourly Weather Babe

    Today, 19 January, Sunday

    Time Temperature Precipitation Wind Pressure Humidity
    00:00 -1°C° 0 mm 3 mps 750 mmHg 82%
    01:00 -2°C° 0 mm 3 mps 750 mmHg 84%
    02:00 -2°C° 0 mm 3 mps 751 mmHg 85%
    03:00 -2°C° 0 mm 3 mps 751 mmHg 86%
    04:00 -2°C° 0 mm 3 mps 751 mmHg 87%
    05:00 -1°C° 0 mm 2 mps 751 mmHg 88%
    06:00 -1°C° 0 mm 3 mps 751 mmHg 88%
    07:00 -1°C° 0 mm 3 mps 752 mmHg 89%
    08:00 0°C° 0 mm 3 mps 752 mmHg 89%
    09:00 0°C° 0 mm 3 mps 752 mmHg 87%
    10:00 0°C° 0 mm 3 mps 752 mmHg 85%
    11:00 +1°C° 0 mm 3 mps 752 mmHg 84%
    12:00 0°C° 0 mm 4 mps 752 mmHg 82%
    13:00 0°C° 0 mm 4 mps 752 mmHg 81%
    14:00 0°C° 0 mm 4 mps 753 mmHg 79%
    15:00 0°C° 0 mm 4 mps 753 mmHg 80%
    16:00 -1°C° 0 mm 4 mps 753 mmHg 82%
    17:00 -1°C° 0 mm 4 mps 753 mmHg 83%
    18:00 -1°C° 0 mm 4 mps 753 mmHg 85%
    19:00 -1°C° 0 mm 4 mps 753 mmHg 87%
    20:00 0°C° 0 mm 4 mps 753 mmHg 89%
    21:00 0°C° 0 mm 4 mps 753 mmHg 88%
    22:00 0°C° 0 mm 4 mps 753 mmHg 88%
    23:00 0°C° 0 mm 4 mps 753 mmHg 87%

    Tomorrow, 20 January, Monday

    Time Temperature Precipitation Wind Pressure Humidity
    00:00 0°C° 0 mm 4 mps 753 mmHg 87%
    01:00 0°C° 0 mm 4 mps 754 mmHg 87%
    02:00 0°C° 0 mm 4 mps 754 mmHg 87%
    03:00 0°C° 0 mm 4 mps 754 mmHg 88%
    04:00 0°C° 0 mm 4 mps 753 mmHg 89%
    05:00 0°C° 0 mm 4 mps 753 mmHg 89%
    06:00 0°C° 0 mm 4 mps 753 mmHg 91%
    07:00 0°C° 0 mm 4 mps 754 mmHg 92%
    08:00 0°C° 0 mm 4 mps 754 mmHg 93%
    09:00 0°C° 0 mm 4 mps 754 mmHg 91%
    10:00 0°C° 0 mm 5 mps 754 mmHg 90%
    11:00 0°C° 0 mm 5 mps 753 mmHg 89%
    12:00 0°C° 0 mm 5 mps 753 mmHg 90%
    13:00 0°C° 0 mm 5 mps 754 mmHg 90%
    14:00 0°C° 0 mm 5 mps 754 mmHg 91%
    15:00 0°C° 0 mm 5 mps 753 mmHg 90%
    16:00 0°C° 0 mm 5 mps 753 mmHg 90%
    17:00 0°C° 0 mm 5 mps 753 mmHg 89%
    18:00 -1°C° 0 mm 5 mps 752 mmHg 86%
    19:00 -1°C° 0 mm 5 mps 752 mmHg 83%
    20:00 -1°C° 0 mm 5 mps 751 mmHg 81%
    21:00 -1°C° 0 mm 5 mps 751 mmHg 80%
    22:00 -2°C° 0 mm 5 mps 750 mmHg 79%
    23:00 -2°C° 0 mm 5 mps 750 mmHg 78%

    Day after tomorrow, 21 January, Tuesday

    Time Temperature Precipitation Wind Pressure Humidity
    00:00 -2°C° 0 mm 5 mps 749 mmHg 80%
    01:00 -1°C° 0 mm 5 mps 748 mmHg 81%
    02:00 -1°C° 0 mm 5 mps 747 mmHg 82%
    03:00 -1°C° 0.2 mm 5 mps 746 mmHg 83%
    04:00 -1°C° 0.2 mm 5 mps 745 mmHg 84%
    05:00 -2°C° 0.2 mm 6 mps 744 mmHg 86%
    06:00 -1°C° 0.1 mm 6 mps 744 mmHg 86%
    07:00 -1°C° 0.1 mm 6 mps 743 mmHg 87%
    08:00 +1°C° 0.1 mm 6 mps 743 mmHg 87%
    09:00 +1°C° 0 mm 6 mps 742 mmHg 86%
    10:00 +2°C° 0 mm 6 mps 742 mmHg 86%
    11:00 +3°C° 0 mm 6 mps 741 mmHg 85%
    12:00 +3°C° 0 mm 6 mps 741 mmHg 84%
    13:00 +3°C° 0 mm 6 mps 740 mmHg 82%
    14:00 +3°C° 0 mm 6 mps 740 mmHg 81%
    15:00 +3°C° 0.1 mm 5 mps 739 mmHg 84%
    16:00 +3°C° 0.1 mm 5 mps 739 mmHg 87%
    17:00 +2°C° 0.1 mm 5 mps 738 mmHg 90%
    18:00 +3°C° 1 mm 4 mps 738 mmHg 92%
    19:00 +3°C° 1 mm 4 mps 737 mmHg 93%
    20:00 +3°C° 1 mm 4 mps 737 mmHg 95%
    21:00 +1°C° 0.2 mm 5 mps 737 mmHg 90%
    22:00 0°C° 0.2 mm 5 mps 737 mmHg 85%
    23:00 -1°C° 0.2 mm 6 mps 737 mmHg 80%

    22 January, Wednesday

    Time Temperature Precipitation Wind Pressure Humidity
    00:00 -2°C° 0 mm 6 mps 737 mmHg 79%
    01:00 -3°C° 0 mm 6 mps 737 mmHg 78%
    02:00 -2°C° 0 mm 5 mps 738 mmHg 77%
    03:00 -2°C° 0 mm 5 mps 737 mmHg 76%
    04:00 -3°C° 0 mm 6 mps 737 mmHg 74%
    05:00 -3°C° 0 mm 6 mps 737 mmHg 73%
    06:00 -3°C° 0 mm 6 mps 737 mmHg 75%
    07:00 -4°C° 0 mm 5 mps 736 mmHg 77%
    08:00 -4°C° 0 mm 5 mps 736 mmHg 79%
    09:00 -2°C° 0.1 mm 5 mps 736 mmHg 77%
    10:00 -2°C° 0.1 mm 5 mps 736 mmHg 75%
    11:00 -2°C° 0.1 mm 5 mps 736 mmHg 73%
    12:00 -2°C° 0.1 mm 5 mps 736 mmHg 72%
    13:00 -2°C° 0.1 mm 5 mps 736 mmHg 71%
    14:00 -2°C° 0.1 mm 5 mps 736 mmHg 71%
    15:00 -2°C° 0 mm 5 mps 736 mmHg 75%
    16:00 -3°C° 0 mm 4 mps 736 mmHg 79%
    17:00 -3°C° 0 mm 4 mps 736 mmHg 83%
    18:00 -3°C° 0 mm 4 mps 736 mmHg 82%
    19:00 -4°C° 0 mm 4 mps 737 mmHg 82%
    20:00 -4°C° 0 mm 4 mps 737 mmHg 82%
    21:00 -4°C° 0 mm 4 mps 738 mmHg 80%
    22:00 -5°C° 0 mm 5 mps 738 mmHg 77%
    23:00 -5°C° 0 mm 5 mps 739 mmHg 75%

    23 January, Thursday

    Time Temperature Precipitation Wind Pressure Humidity
    00:00 -6°C° 0 mm 5 mps 740 mmHg 72%
    01:00 -7°C° 0 mm 5 mps 741 mmHg 68%
    02:00 -8°C° 0 mm 5 mps 741 mmHg 65%
    03:00 -8°C° 0 mm 5 mps 742 mmHg 62%
    04:00 -8°C° 0 mm 5 mps 742 mmHg 59%
    05:00 -8°C° 0 mm 5 mps 743 mmHg 56%
    06:00 -8°C° 0 mm 5 mps 743 mmHg 60%
    07:00 -8°C° 0 mm 6 mps 743 mmHg 63%
    08:00 -8°C° 0 mm 6 mps 744 mmHg 66%
    09:00 -8°C° 0 mm 6 mps 744 mmHg 66%
    10:00 -8°C° 0 mm 6 mps 744 mmHg 67%
    11:00 -7°C° 0 mm 7 mps 745 mmHg 67%
    12:00 -7°C° 0 mm 7 mps 745 mmHg 61%
    13:00 -6°C° 0 mm 6 mps 745 mmHg 56%
    14:00 -6°C° 0 mm 6 mps 746 mmHg 51%
    15:00 -8°C° 0 mm 6 mps 746 mmHg 52%
    16:00 -7°C° 0 mm 5 mps 747 mmHg 54%
    17:00 -8°C° 0 mm 4 mps 748 mmHg 56%
    18:00 -8°C° 0 mm 4 mps 748 mmHg 58%
    19:00 -8°C° 0 mm 4 mps 749 mmHg 59%
    20:00 -8°C° 0 mm 3 mps 749 mmHg 61%
    21:00 -8°C° 0 mm 3 mps 749 mmHg 63%
    22:00 -8°C° 0 mm 3 mps 749 mmHg 64%
    23:00 -7°C° 0 mm 2 mps 750 mmHg 65%

    24 January, Friday

    Time Temperature Precipitation Wind Pressure Humidity
    00:00 -7°C° 0 mm 2 mps 749 mmHg 65%
    01:00 -6°C° 0 mm 2 mps 749 mmHg 64%
    02:00 -7°C° 0 mm 3 mps 749 mmHg 63%
    03:00 -6°C° 0.1 mm 3 mps 748 mmHg 73%
    04:00 -6°C° 0.1 mm 3 mps 747 mmHg 83%
    05:00 -5°C° 0.1 mm 3 mps 747 mmHg 94%
    06:00 -5°C° 0.3 mm 4 mps 746 mmHg 93%
    07:00 -4°C° 0.3 mm 4 mps 746 mmHg 93%
    08:00 -4°C° 0.3 mm 4 mps 745 mmHg 93%
    09:00 -3°C° 0.1 mm 4 mps 745 mmHg 91%
    10:00 -2°C° 0.1 mm 5 mps 745 mmHg 88%
    11:00 -1°C° 0.1 mm 5 mps 745 mmHg 86%
    12:00 -1°C° 0.1 mm 5 mps 745 mmHg 88%
    13:00 -1°C° 0.1 mm 5 mps 745 mmHg 91%
    14:00 0°C° 0.1 mm 5 mps 745 mmHg 93%
    15:00 0°C° 0 mm 5 mps 745 mmHg 91%
    16:00 0°C° 0 mm 5 mps 745 mmHg 90%
    17:00 0°C° 0 mm 4 mps 745 mmHg 88%
    18:00 0°C° 0 mm 4 mps 745 mmHg 89%
    19:00 0°C° 0 mm 4 mps 745 mmHg 89%
    20:00 0°C° 0 mm 4 mps 745 mmHg 90%
    21:00 0°C° 0 mm 4 mps 746 mmHg 91%
    22:00 0°C° 0 mm 4 mps 746 mmHg 91%
    23:00 +1°C° 0 mm 3 mps 746 mmHg 92%
    Show more